Regional Weather Roundup
Issued by NWS Kansas City/Pleasant Hill, MO

Home | Current Version | Previous Version | Graphics & Text | Print | Product List | Glossary Off
Versions: 1 2 3 4 5 6 7 8 9 10 11 12 13 14 15 16 17 18 19 20 21 22 23 24 25 26 27

000
ASUS43 KEAX 232010
RWREAX

WEATHER ROUNDUP FOR EASTERN KANSAS AND NORTHWEST MISSOURI
NATIONAL WEATHER SERVICE KANSAS CITY/PLEASANT HILL MO
200 PM CST THU FEB 23 2017

KSZ040-057-103>105-MOZ028-029-037-043-232100-
...KANSAS CITY METROPOLITAN AREA...

CITY           SKY/WX    TMP DP  RH WIND       PRES   REMARKS
K.C. INTL      PTSUNNY   50  43  77 E17       29.49F
K.C. DOWNTOWN  CLOUDY    53  43  68 E12       29.49F
LEES SUMMIT    PTSUNNY   54  45  71 E15       29.50F
OLATHE - IXD   CLOUDY    57  46  66 E13       29.47F
OLATHE - OJC   PTSUNNY   55  46  71 E10G21    29.47F
LAWRENCE       CLOUDY    56  46  69 E10       29.49F

$$

MOZ001>008-011>017-020>025-030>033-038>040-044>046-053-054-232100-
...NORTHERN AND CENTRAL MISSOURI...

CITY           SKY/WX    TMP DP  RH WIND       PRES   REMARKS
ST. JOSEPH     CLOUDY    54  44  69 E10       29.51S
WARRENSBURG    CLOUDY    61  50  67 NE16      29.48F
WHITEMAN AFB   PTSUNNY   63  56  77 E12G17    29.47F
CLINTON        CLOUDY    68  54  60 E10       29.48F
SEDALIA        MOSUNNY   67  53  61 E15       29.50F
WARSAW         NOT AVBL
CHILLICOTHE      N/A     49  42  77 E13G26    29.55F
KIRKSVILLE     CLOUDY    47  43  86 E15G22    29.59F

$$

MOZ041-047>049-056>058-063>065-088>090-097-232100-
...EASTERN AND SOUTHERN MISSOURI...

CITY           SKY/WX    TMP DP  RH WIND       PRES   REMARKS
ST. LOUIS INTL CLOUDY    70  55  59 SE14      29.62F
SPIRIT OF STL  PTSUNNY   71  55  56 E8        29.60F
COLUMBIA       MOSUNNY   64  55  72 E15       29.55F
JEFFERSON CITY PTSUNNY   64  55  72 E8        29.54F
ROLLA          SUNNY     70  54  56 SE15G23   29.55F
OSAGE BEACH    SUNNY     75  51  43 SE14G24   29.51F
SPRINGFIELD    SUNNY     78  53  41 S23G32    29.46F
BRANSON        MOSUNNY   79  48  34 S15       29.53F
JOPLIN         MOSUNNY   81  48  31 S18       29.43F
WEST PLAINS    SUNNY     74  52  46 S20G26    29.59F

$$

IAZ060-094-KSZ022-034>040-054-083-096-NEZ052-066-093-232100-
...KANSAS...SOUTHEAST NEBRASKA AND IOWA...

CITY           SKY/WX    TMP DP  RH WIND       PRES   REMARKS
TOPEKA         CLOUDY    59  47  64 E13       29.45F
MANHATTAN      CLOUDY    60  44  55 NE14      29.45F
EMPORIA        PTSUNNY   67  51  56 SE17G23   29.40F
CHANUTE        MOSUNNY   76  49  38 S15       29.43F
WICHITA        PTSUNNY   69  48  47 SE13      29.36F
OMAHA          CLOUDY    42  34  73 NE13      29.64F
LINCOLN        CLOUDY    42  34  73 NE21      29.61F WCI  33
FALLS CITY     CLOUDY    49  39  68 E13       29.51F
LAMONI         CLOUDY    49  41  74 E15G31    29.54F
DES MOINES     CLOUDY    46  39  76 E16G24    29.64F

$$





USA.gov is the U.S. government's official web portal to all federal, state and local government web resources and services.